Observations for Trim Market St
| Time | AQI | Temp °C | Hum % | Pres Pa | CO μg/m³ | H₂S μg/m³ | NO μg/m³ | NO₂ μg/m³ | O₃ μg/m³ | SO₂ μg/m³ | PM1 μg/m³ | PM2.5 μg/m³ | PM10 μg/m³ |
|---|---|---|---|---|---|---|---|---|---|---|---|---|---|
| Tuesday 25 August 2026 | |||||||||||||
| 21:24 | 3 | 16.9 | 81 | 2,147,483,647 | 0.31 | 0 | 1.7 | 27.74 | 33.23 | 0 | 7.13 | 7.7 | 12.02 |
| 21:23 | 3 | 16.9 | 81 | 2,147,483,647 | 0.39 | 0 | 1.67 | 35.39 | 26.74 | 0 | 8.55 | 9.41 | 12.02 |
| 21:22 | 3 | 16.9 | 81 | 2,147,483,647 | 0.26 | 0 | 1.7 | 27.17 | 34.85 | 0 | 7.13 | 7.72 | 12.03 |
| 21:21 | 3 | 16.9 | 81 | 2,147,483,647 | 0.26 | 0 | 1.56 | 31.38 | 41.46 | 0 | 6.41 | 7.72 | 11.47 |
| 21:20 | 3 | 17 | 81 | 2,147,483,647 | 0.25 | 0 | 1.43 | 27.09 | 34.99 | 0 | 4.28 | 5.36 | 8.66 |
| 21:19 | 3 | 16.9 | 81 | 2,147,483,647 | 0.27 | 0 | 1.33 | 27.4 | 34.3 | 0 | 5.7 | 6.31 | 9.78 |
| 21:18 | 3 | 17 | 81 | 2,147,483,647 | 0.26 | 0 | 1.38 | 23.83 | 44.57 | 0 | 5.7 | 7.73 | 12.6 |
| 21:15 | 3 | 17 | 80 | 2,147,483,647 | 0.3 | 0 | 4.1 | 36.34 | 28.24 | 0 | 6.41 | 8.21 | 12.05 |
| 21:14 | 3 | 17 | 80 | 2,147,483,647 | 0.43 | 0 | 4.81 | 52.71 | 6.67 | 0 | 7.13 | 9.63 | 13.74 |
| 21:11 | 3 | 17 | 80 | 2,147,483,647 | 0.3 | 0 | 1.66 | 42.38 | 20.08 | 0 | 6.41 | 8.23 | 13.75 |
| 21:10 | 3 | 17 | 80 | 2,147,483,647 | 0.33 | 0 | 1.22 | 29.09 | 32.29 | 0 | 6.41 | 8.7 | 16.02 |
| 21:05 | 3 | 17.1 | 80 | 2,147,483,647 | 0.24 | 0 | 1.78 | 30.11 | 40.61 | 0 | 3.56 | 4.95 | 9.81 |
| 21:01 | 3 | 17.1 | 80 | 2,147,483,647 | 0.32 | 0 | 27.62 | 58.64 | 1.4 | 0 | 6.41 | 7.33 | 12.09 |
| 21:00 | 3 | 17.1 | 79 | 2,147,483,647 | 0.32 | 0 | 27.58 | 50.81 | 13.01 | 0 | 4.28 | 5.45 | 8.67 |
| 20:59 | 3 | 17.1 | 79 | 2,147,483,647 | 0.5 | 0 | 15.18 | 72.52 | 0 | 0 | 6.41 | 7.34 | 10.96 |
| 20:58 | 3 | 17.1 | 79 | 2,147,483,647 | 0.82 | 2.66 | 7.52 | 51.87 | 15.9 | 0 | 7.84 | 9.24 | 13.82 |
| 20:57 | 3 | 17.1 | 79 | 2,147,483,647 | 2.59 | 4.49 | 1.97 | 52.59 | 15.88 | 0 | 7.13 | 9.24 | 14.4 |
| 20:54 | 3 | 17.1 | 79 | 2,147,483,647 | 0.27 | 0 | 1.55 | 33.69 | 39.96 | 0 | 7.13 | 8.79 | 14.42 |
| 20:53 | 3 | 17.2 | 79 | 2,147,483,647 | 0.25 | 0 | 1.6 | 27.21 | 44.3 | 0 | 6.41 | 7.37 | 10.97 |
| 20:49 | 3 | 17.2 | 78 | 2,147,483,647 | 0.24 | 0 | 1.29 | 28.87 | 42.64 | 0 | 5.7 | 7.39 | 11.57 |